Visibility
14.7 15.0 14.7 15.0 15.0 15.0 15.0 15.0 11.3 11.5 14.4 15.0 15.0 15.0 15.0 15.0 15.0 15.0 15.0 15.0 15.0 15.0
1.0 15.0 15.0 15.0 15.0 15.0 15.0 15.0 11.2 15.0 12.3 9.2 15.0 15.0 15.0 15.0 15.0 15.0 15.0 15.0 15.0 15.0
8.0 1.3 14.4 15.0 15.0 15.0 15.0 15.0 15.0 13.8 12.2 13.1 15.0 15.0 15.0 12.8 15.0 15.0 15.0 15.0 15.0 15.0
6.4 14.4 13.4 15.0 15.0 15.0 15.0 15.0 15.0 13.8 13.4 15.0 15.0 15.0 15.0 15.0 15.0 15.0 15.0 15.0 15.0 15.0
15.0 8.5 2.9 12.8 15.0 15.0 12.0 7.8 15.0 15.0 15.0 15.0 15.0 15.0 15.0 14.7 15.0 15.0 15.0 15.0 15.0 15.0
11.3 14.7 8.0 0.8 5.5 15.0 8.8 7.0 15.0 15.0 15.0 15.0 15.0 15.0 15.0 15.0 15.0 13.0 15.0 15.0 15.0 15.0
14.9 14.9 15.0 11.0 7.1 7.7 15.0 14.1 12.9 13.9 15.0 15.0 15.0 15.0 15.0 15.0 14.5 15.0 15.0 15.0 15.0 15.0
15.0 8.8 6.2 6.2 11.3 8.0 10.6 12.6 15.0 15.0 13.5 15.0 15.0 15.0 15.0 15.0 15.0 15.0 15.0 15.0 15.0 15.0
15.0 15.0 12.2 15.0 8.3 6.6 15.0 15.0 15.0 15.0 9.9 15.0 15.0 15.0 15.0 15.0 15.0 15.0 15.0 15.0 15.0 15.0
3.0 15.0 15.0 14.3 15.0 12.8 15.0 8.1 15.0 15.0 14.3 14.1 15.0 15.0 15.0 15.0 15.0 15.0 15.0 15.0 15.0 15.0
0.1 1.0 10.1 15.0 15.0 15.0 10.0 1.2 3.1 15.0 13.0 10.3 15.0 15.0 15.0 15.0 15.0 15.0 15.0 15.0 15.0 15.0
0.1 0.1 0.8 7.3 0.2 0.9 15.0 15.0 0.9 1.4 0.8 3.2 14.8 7.3 15.0 15.0 15.0 15.0 15.0 15.0 15.0 15.0
0.1 0.1 0.1 0.1 0.1 0.2 5.2 8.0 7.2 9.4 15.0 12.4 1.8 1.0 1.6 15.0 13.8 0.1 0.2 6.0 14.5 15.0
0.1 0.1 0.1 0.1 0.0 0.1 0.1 3.2 6.9 11.9 15.0 15.0 13.7 15.0 1.0 1.4 0.7 0.5 0.1 0.1 0.2 15.0